KBXK

Details ICAO KBXK (BXK)
Name BUCKEYE MUNI
Region United States
Timezone America/Phoenix (UTC-7.0)
Plans Departing 3
Arriving 6
Stats Elevation 1,021 ft / 311 m (AMSL)
Location 33.420984° -112.685719°
Runways 3
Magnetic Variation 10.476° E
Sunrise 2018-05-21 12:28:05 UTC / 2018-05-21 05:28:05 Local
Sunset 2018-05-22 02:29:29 UTC / 2018-05-21 19:29:29 Local
Advertisement - Login to hide

Runways

ID Width Length Bearing (true) Bearing (mag) Surface Threshold Offset Overrun Length
05 300 ft / 91 m 3,304 ft / 1,007 m 60.60° 50.12° Asphalt 0 ft / 0 m 0 ft / 0 m
11 270 ft / 82 m 3,426 ft / 1,044 m 120.21° 109.73° Asphalt 0 ft / 0 m 0 ft / 0 m
17 75 ft / 23 m 5,515 ft / 1,681 m 182.02° 171.54° Asphalt 0 ft / 0 m 0 ft / 0 m
23 300 ft / 91 m 3,304 ft / 1,007 m 240.60° 230.12° Asphalt 0 ft / 0 m 0 ft / 0 m
29 270 ft / 82 m 3,426 ft / 1,044 m 300.22° 289.74° Asphalt 0 ft / 0 m 0 ft / 0 m
35 75 ft / 23 m 5,515 ft / 1,681 m 2.02° 351.54° Asphalt 0 ft / 0 m 0 ft / 0 m

Map

Weather


0- 5 10 15 20 25 30 35+ Temperature / ° C

Clouds and Precipitation
Forecast for 2018-05-22 06:00 UTC. Updated an hour ago

Ground ~20,000 ft ~40,000 ft Winds

METAR

KBXK 220635Z AUTO 21009KT 10SM CLR 23/03 A2972 RMK AO1

TAF

Not found

Frequencies

Unicom 122.80 MHz CTAF/UNICOM
Warning: Do not use this data for real-world aviation or navigation. No guarantee of current accuracy is given.